Location: Asheville, NC
(35.6000°N, 82.5500°W)
Time: 07:53:52
(UTC-04:00)

Vanguard 2 Rocket - Pass Details

Date: 17 February 2018
Orbit: 554 x 3327 km, 32.9° (Epoch: 21 May)

Event Time Altitude Azimuth Distance (km) Brightness Sun altitude
Exits shadow 01:06:37 26° 87° (E) 5,025 10.5 -65.8°
Drops below altitude 10° 01:12:57 10° 84° (E) 6,239 11.2 -65.5°
Sets 01:17:36 0° 83° (E) 7,146 11.6 -65.2°
